Time,TemperatureF,DewpointF,PressureIn,WindDirection,WindDirectionDegrees,WindSpeedMPH,WindSpeedGustMPH,Humidity,HourlyPrecipIn,Conditions,Clouds,dailyrainin,SoftwareType,DateUTC
2013-07-05 00:03:00,57.2,51.8,30.06,North,0,0.0,0.0,82,0.00,,,0.00,WUHU216HW,2013-07-05 07:03:00,
2013-07-05 00:08:00,57.2,51.8,30.06,North,0,0.0,0.0,82,0.00,,,0.00,WUHU216HW,2013-07-05 07:08:00,
2013-07-05 00:13:00,57.2,51.8,30.06,North,0,0.0,0.0,82,0.00,,,0.00,WUHU216HW,2013-07-05 07:13:00,
2013-07-05 00:18:00,57.2,52.1,30.06,North,0,0.0,0.0,83,0.00,,,0.00,WUHU216HW,2013-07-05 07:18:00,
2013-07-05 00:23:00,57.2,52.1,30.06,North,0,0.0,0.0,83,0.00,,,0.00,WUHU216HW,2013-07-05 07:23:00,
2013-07-05 00:28:00,57.8,52.3,30.06,North,0,0.0,0.0,82,0.00,,,0.00,WUHU216HW,2013-07-05 07:28:00,
2013-07-05 00:33:00,58.0,52.5,30.06,North,0,0.0,0.0,82,0.00,,,0.00,WUHU216HW,2013-07-05 07:33:00,
2013-07-05 00:38:00,57.8,52.3,30.06,North,0,0.0,0.0,82,0.00,,,0.00,WUHU216HW,2013-07-05 07:38:00,
2013-07-05 00:43:00,57.4,52.3,30.06,North,0,0.0,0.0,83,0.00,,,0.00,WUHU216HW,2013-07-05 07:43:00,
2013-07-05 00:48:00,57.1,51.9,30.06,North,0,0.0,0.0,83,0.00,,,0.00,WUHU216HW,2013-07-05 07:48:00,
2013-07-05 00:53:00,56.9,51.8,30.06,North,0,0.0,0.0,83,0.00,,,0.00,WUHU216HW,2013-07-05 07:53:00,
2013-07-05 00:58:00,56.5,51.7,30.06,North,0,0.0,0.0,84,0.00,,,0.00,WUHU216HW,2013-07-05 07:58:00,
2013-07-05 01:03:00,56.3,51.2,30.06,North,0,0.0,0.0,83,0.00,,,0.00,WUHU216HW,2013-07-05 08:03:00,
2013-07-05 01:08:00,56.2,51.0,30.06,North,0,0.0,0.0,83,0.00,,,0.00,WUHU216HW,2013-07-05 08:08:00,
2013-07-05 01:13:00,56.0,51.1,30.06,North,0,0.0,0.0,84,0.00,,,0.00,WUHU216HW,2013-07-05 08:13:00,
2013-07-05 01:18:00,55.8,50.9,30.06,North,0,0.0,0.0,84,0.00,,,0.00,WUHU216HW,2013-07-05 08:18:00,
2013-07-05 01:23:00,55.8,50.7,30.06,North,0,0.0,0.0,83,0.00,,,0.00,WUHU216HW,2013-07-05 08:23:00,
2013-07-05 01:28:00,55.8,50.9,30.06,North,0,0.0,0.0,84,0.00,,,0.00,WUHU216HW,2013-07-05 08:28:00,
2013-07-05 01:33:00,55.8,50.9,30.06,North,0,0.0,0.0,84,0.00,,,0.00,WUHU216HW,2013-07-05 08:33:00,
2013-07-05 01:38:00,56.0,51.1,30.06,North,0,0.0,0.0,84,0.00,,,0.00,WUHU216HW,2013-07-05 08:38:00,
2013-07-05 01:43:00,56.0,51.1,30.06,North,0,0.0,0.0,84,0.00,,,0.00,WUHU216HW,2013-07-05 08:43:00,
2013-07-05 01:48:00,56.0,51.1,30.06,North,0,0.0,0.0,84,0.00,,,0.00,WUHU216HW,2013-07-05 08:48:00,
2013-07-05 01:53:00,56.0,51.1,30.06,North,0,0.0,0.0,84,0.00,,,0.00,WUHU216HW,2013-07-05 08:53:00,
2013-07-05 01:58:00,55.8,50.9,30.06,North,0,0.0,0.0,84,0.00,,,0.00,WUHU216HW,2013-07-05 08:58:00,
2013-07-05 02:03:00,56.0,50.9,30.06,North,0,0.0,0.0,83,0.00,,,0.00,WUHU216HW,2013-07-05 09:03:00,
2013-07-05 02:09:00,56.0,50.9,30.06,North,0,0.0,0.0,83,0.00,,,0.00,WUHU216HW,2013-07-05 09:09:00,
2013-07-05 02:14:00,56.2,50.7,30.06,North,0,0.0,0.0,82,0.00,,,0.00,WUHU216HW,2013-07-05 09:14:00,
2013-07-05 02:19:00,56.3,50.9,30.06,North,0,0.0,0.0,82,0.00,,,0.00,WUHU216HW,2013-07-05 09:19:00,
2013-07-05 02:24:00,56.2,50.7,30.06,North,0,0.0,0.0,82,0.00,,,0.00,WUHU216HW,2013-07-05 09:24:00,
2013-07-05 02:29:00,56.2,50.7,30.05,North,0,0.0,0.0,82,0.00,,,0.00,WUHU216HW,2013-07-05 09:29:00,
2013-07-05 02:34:00,55.8,50.9,30.05,North,0,0.0,0.0,84,0.00,,,0.00,WUHU216HW,2013-07-05 09:34:00,
2013-07-05 02:40:00,55.4,50.6,30.05,North,0,0.0,0.0,84,0.00,,,0.00,WUHU216HW,2013-07-05 09:40:00,
2013-07-05 02:45:00,55.1,50.3,30.05,North,0,0.0,0.0,84,0.00,,,0.00,WUHU216HW,2013-07-05 09:45:00,
2013-07-05 02:50:00,54.9,50.1,30.05,North,0,0.0,0.0,84,0.00,,,0.00,WUHU216HW,2013-07-05 09:50:00,
2013-07-05 02:55:00,54.7,50.2,30.05,North,0,0.0,0.0,85,0.00,,,0.00,WUHU216HW,2013-07-05 09:55:00,
2013-07-05 03:00:00,54.5,50.4,30.05,North,0,0.0,0.0,86,0.00,,,0.00,WUHU216HW,2013-07-05 10:00:00,
2013-07-05 03:05:00,54.4,50.2,30.05,North,0,0.0,0.0,86,0.00,,,0.00,WUHU216HW,2013-07-05 10:05:00,
2013-07-05 03:11:00,54.4,50.2,30.05,North,0,0.0,0.0,86,0.00,,,0.00,WUHU216HW,2013-07-05 10:11:00,
2013-07-05 03:16:00,54.5,50.4,30.05,North,0,0.0,0.0,86,0.00,,,0.00,WUHU216HW,2013-07-05 10:16:00,
2013-07-05 03:21:00,54.7,50.6,30.06,North,0,0.0,0.0,86,0.00,,,0.00,WUHU216HW,2013-07-05 10:21:00,
2013-07-05 03:26:00,55.1,51.0,30.06,North,0,0.0,0.0,86,0.00,,,0.00,WUHU216HW,2013-07-05 10:26:00,
2013-07-05 03:31:00,55.1,51.0,30.05,North,0,0.0,0.0,86,0.00,,,0.00,WUHU216HW,2013-07-05 10:31:00,
2013-07-05 03:36:00,55.4,51.3,30.05,North,0,0.0,0.0,86,0.00,,,0.00,WUHU216HW,2013-07-05 10:36:00,
2013-07-05 03:41:00,55.6,51.5,30.05,North,0,0.0,0.0,86,0.00,,,0.00,WUHU216HW,2013-07-05 10:41:00,
2013-07-05 03:47:00,56.0,51.5,30.05,North,0,0.0,0.0,85,0.00,,,0.00,WUHU216HW,2013-07-05 10:47:00,
2013-07-05 03:52:00,56.3,51.5,30.05,North,0,0.0,0.0,84,0.00,,,0.00,WUHU216HW,2013-07-05 10:52:00,
2013-07-05 03:57:00,56.5,52.0,30.05,North,0,0.0,0.0,85,0.00,,,0.00,WUHU216HW,2013-07-05 10:57:00,
2013-07-05 04:02:00,56.7,51.8,30.05,North,0,0.0,0.0,84,0.00,,,0.00,WUHU216HW,2013-07-05 11:02:00,
2013-07-05 04:07:00,56.9,51.8,30.05,North,0,0.0,0.0,83,0.00,,,0.00,WUHU216HW,2013-07-05 11:07:00,
2013-07-05 04:12:00,56.9,51.8,30.05,North,0,0.0,0.0,83,0.00,,,0.00,WUHU216HW,2013-07-05 11:12:00,
2013-07-05 04:18:00,57.1,51.9,30.05,North,0,0.0,0.0,83,0.00,,,0.00,WUHU216HW,2013-07-05 11:18:00,
2013-07-05 04:23:00,57.1,51.9,30.05,North,0,0.0,0.0,83,0.00,,,0.00,WUHU216HW,2013-07-05 11:23:00,
2013-07-05 04:28:00,57.1,51.9,30.05,North,0,0.0,0.0,83,0.00,,,0.00,WUHU216HW,2013-07-05 11:28:00,
2013-07-05 04:33:00,57.1,51.9,30.05,North,0,0.0,0.0,83,0.00,,,0.00,WUHU216HW,2013-07-05 11:33:00,
2013-07-05 04:38:00,57.2,52.1,30.05,North,0,0.0,0.0,83,0.00,,,0.00,WUHU216HW,2013-07-05 11:38:00,
2013-07-05 04:43:00,57.2,52.1,30.05,North,0,0.0,0.0,83,0.00,,,0.00,WUHU216HW,2013-07-05 11:43:00,
2013-07-05 04:48:00,57.2,51.8,30.05,North,0,0.0,0.0,82,0.00,,,0.00,WUHU216HW,2013-07-05 11:48:00,
2013-07-05 04:53:00,57.2,51.8,30.05,North,0,0.0,0.0,82,0.00,,,0.00,WUHU216HW,2013-07-05 11:53:00,
2013-07-05 04:59:00,57.2,51.8,30.05,North,0,0.0,0.0,82,0.00,,,0.00,WUHU216HW,2013-07-05 11:59:00,
2013-07-05 05:04:00,57.2,52.1,30.05,North,0,0.0,0.0,83,0.00,,,0.00,WUHU216HW,2013-07-05 12:04:00,
2013-07-05 05:10:00,57.2,51.8,30.05,North,0,0.0,0.0,82,0.00,,,0.00,WUHU216HW,2013-07-05 12:10:00,
2013-07-05 05:15:00,57.2,51.8,30.05,North,0,0.0,0.0,82,0.00,,,0.00,WUHU216HW,2013-07-05 12:15:00,
2013-07-05 05:20:00,57.1,51.9,30.05,North,0,0.0,0.0,83,0.00,,,0.00,WUHU216HW,2013-07-05 12:20:00,
2013-07-05 05:25:00,57.1,51.6,30.05,North,0,0.0,0.0,82,0.00,,,0.00,WUHU216HW,2013-07-05 12:25:00,
2013-07-05 05:30:00,57.1,51.6,30.05,North,0,0.0,0.0,82,0.00,,,0.00,WUHU216HW,2013-07-05 12:30:00,
2013-07-05 05:35:00,57.1,51.9,30.05,North,0,0.0,0.0,83,0.00,,,0.00,WUHU216HW,2013-07-05 12:35:00,
2013-07-05 05:41:00,57.1,51.9,30.05,North,0,0.0,0.0,83,0.00,,,0.00,WUHU216HW,2013-07-05 12:41:00,
2013-07-05 05:46:00,57.2,52.1,30.05,North,0,0.0,0.0,83,0.00,,,0.00,WUHU216HW,2013-07-05 12:46:00,
2013-07-05 05:51:00,57.1,51.9,30.05,North,0,0.0,0.0,83,0.00,,,0.00,WUHU216HW,2013-07-05 12:51:00,
2013-07-05 05:56:00,57.1,51.9,30.05,North,0,0.0,0.0,83,0.00,,,0.00,WUHU216HW,2013-07-05 12:56:00,
2013-07-05 06:01:00,57.1,51.9,30.05,North,0,0.0,0.0,83,0.00,,,0.00,WUHU216HW,2013-07-05 13:01:00,
2013-07-05 06:06:00,57.2,51.8,30.06,North,0,0.0,0.0,82,0.00,,,0.00,WUHU216HW,2013-07-05 13:06:00,
2013-07-05 06:11:00,57.4,51.9,30.05,North,0,0.0,0.0,82,0.00,,,0.00,WUHU216HW,2013-07-05 13:11:00,
2013-07-05 06:16:00,57.4,51.9,30.05,North,0,0.0,0.0,82,0.00,,,0.00,WUHU216HW,2013-07-05 13:16:00,
2013-07-05 06:21:00,57.6,52.1,30.05,North,0,0.0,0.0,82,0.00,,,0.00,WUHU216HW,2013-07-05 13:21:00,
2013-07-05 06:26:00,57.4,51.9,30.05,North,0,0.0,0.0,82,0.00,,,0.00,WUHU216HW,2013-07-05 13:26:00,
2013-07-05 06:31:00,57.4,51.9,30.05,North,0,0.0,0.0,82,0.00,,,0.00,WUHU216HW,2013-07-05 13:31:00,
2013-07-05 06:37:00,57.4,51.9,30.05,North,0,0.0,0.0,82,0.00,,,0.00,WUHU216HW,2013-07-05 13:37:00,
2013-07-05 06:42:00,57.4,51.9,30.05,North,0,0.0,0.0,82,0.00,,,0.00,WUHU216HW,2013-07-05 13:42:00,
2013-07-05 06:47:00,57.6,52.1,30.05,North,0,0.0,0.0,82,0.00,,,0.00,WUHU216HW,2013-07-05 13:47:00,
2013-07-05 06:52:00,57.6,52.1,30.06,North,0,0.0,0.0,82,0.00,,,0.00,WUHU216HW,2013-07-05 13:52:00,
2013-07-05 06:58:00,57.4,51.9,30.06,North,0,0.0,0.0,82,0.00,,,0.00,WUHU216HW,2013-07-05 13:58:00,
2013-07-05 07:03:00,57.4,51.9,30.06,North,0,0.0,0.0,82,0.00,,,0.00,WUHU216HW,2013-07-05 14:03:00,
2013-07-05 07:08:00,57.4,51.9,30.06,North,0,0.0,0.0,82,0.00,,,0.00,WUHU216HW,2013-07-05 14:08:00,
2013-07-05 07:13:00,57.6,52.1,30.06,North,0,0.0,0.0,82,0.00,,,0.00,WUHU216HW,2013-07-05 14:13:00,
2013-07-05 07:19:00,57.8,52.0,30.06,North,0,0.0,0.0,81,0.00,,,0.00,WUHU216HW,2013-07-05 14:19:00,
2013-07-05 07:24:00,58.0,52.2,30.06,North,0,0.0,0.0,81,0.00,,,0.00,WUHU216HW,2013-07-05 14:24:00,
2013-07-05 07:29:00,58.0,52.2,30.06,North,0,0.0,0.0,81,0.00,,,0.00,WUHU216HW,2013-07-05 14:29:00,
2013-07-05 07:34:00,58.0,52.2,30.06,North,0,0.0,0.0,81,0.00,,,0.00,WUHU216HW,2013-07-05 14:34:00,
2013-07-05 07:39:00,58.0,52.2,30.06,North,0,0.0,0.0,81,0.00,,,0.00,WUHU216HW,2013-07-05 14:39:00,
2013-07-05 07:44:00,58.0,52.2,30.06,North,0,0.0,0.0,81,0.00,,,0.00,WUHU216HW,2013-07-05 14:44:00,
2013-07-05 07:49:00,57.6,51.9,30.06,North,0,0.0,0.0,81,0.00,,,0.00,WUHU216HW,2013-07-05 14:49:00,
2013-07-05 07:54:00,57.6,51.9,30.06,North,0,0.0,0.0,81,0.00,,,0.00,WUHU216HW,2013-07-05 14:54:00,
2013-07-05 07:59:00,57.6,52.1,30.06,North,0,0.0,0.0,82,0.00,,,0.00,WUHU216HW,2013-07-05 14:59:00,
2013-07-05 08:04:00,57.8,52.0,30.06,North,0,0.0,0.0,81,0.00,,,0.00,WUHU216HW,2013-07-05 15:04:00,
2013-07-05 08:09:00,58.0,52.2,30.06,North,0,0.0,0.0,81,0.00,,,0.00,WUHU216HW,2013-07-05 15:09:00,
2013-07-05 08:14:00,58.1,52.4,30.06,North,0,0.0,0.0,81,0.00,,,0.00,WUHU216HW,2013-07-05 15:14:00,
2013-07-05 08:19:00,58.1,52.4,30.06,North,0,0.0,0.0,81,0.00,,,0.00,WUHU216HW,2013-07-05 15:19:00,
2013-07-05 08:24:00,58.5,52.8,30.06,North,0,0.0,0.0,81,0.00,,,0.00,WUHU216HW,2013-07-05 15:24:00,
2013-07-05 08:29:00,59.0,53.3,30.06,North,0,0.0,0.0,81,0.00,,,0.00,WUHU216HW,2013-07-05 15:29:00,
2013-07-05 08:34:00,59.4,53.3,30.06,North,0,0.0,0.0,80,0.00,,,0.00,WUHU216HW,2013-07-05 15:34:00,
2013-07-05 08:39:00,59.4,53.3,30.06,North,0,0.0,0.0,80,0.00,,,0.00,WUHU216HW,2013-07-05 15:39:00,
2013-07-05 08:44:00,59.8,53.3,30.06,North,0,0.0,0.0,79,0.00,,,0.00,WUHU216HW,2013-07-05 15:44:00,
2013-07-05 08:49:00,59.8,53.3,30.06,North,0,0.0,0.0,79,0.00,,,0.00,WUHU216HW,2013-07-05 15:49:00,
2013-07-05 08:54:00,60.1,53.6,30.06,North,0,0.0,0.0,79,0.00,,,0.00,WUHU216HW,2013-07-05 15:54:00,
2013-07-05 08:59:00,60.7,54.2,30.06,North,0,0.0,0.0,79,0.00,,,0.00,WUHU216HW,2013-07-05 15:59:00,
2013-07-05 09:04:00,61.6,54.6,30.06,North,0,0.0,0.0,78,0.00,,,0.00,WUHU216HW,2013-07-05 16:04:00,
2013-07-05 09:05:00,61.6,54.6,30.06,North,0,0.0,0.0,78,0.00,,,0.00,WUHU216HW,2013-07-05 16:05:00,
2013-07-05 09:10:00,62.3,54.9,30.06,North,0,0.0,0.0,77,0.00,,,0.00,WUHU216HW,2013-07-05 16:10:00,
2013-07-05 09:15:00,62.6,54.5,30.06,North,0,0.0,0.0,75,0.00,,,0.00,WUHU216HW,2013-07-05 16:15:00,
2013-07-05 09:20:00,62.8,54.7,30.06,North,0,0.0,0.0,75,0.00,,,0.00,WUHU216HW,2013-07-05 16:20:00,
2013-07-05 09:25:00,62.6,54.2,30.06,North,0,0.0,0.0,74,0.00,,,0.00,WUHU216HW,2013-07-05 16:25:00,
2013-07-05 09:30:00,62.8,54.7,30.06,North,0,0.0,0.0,75,0.00,,,0.00,WUHU216HW,2013-07-05 16:30:00,
2013-07-05 09:35:00,62.8,54.4,30.06,North,0,0.0,0.0,74,0.00,,,0.00,WUHU216HW,2013-07-05 16:35:00,
2013-07-05 09:40:00,63.2,54.7,30.06,North,0,0.0,0.0,74,0.00,,,0.00,WUHU216HW,2013-07-05 16:40:00,
2013-07-05 09:45:00,63.7,55.3,30.06,North,0,0.0,0.0,74,0.00,,,0.00,WUHU216HW,2013-07-05 16:45:00,
2013-07-05 09:50:00,63.7,55.3,30.06,North,0,0.0,0.0,74,0.00,,,0.00,WUHU216HW,2013-07-05 16:50:00,
2013-07-05 09:55:00,63.7,54.9,30.06,North,0,0.0,0.0,73,0.00,,,0.00,WUHU216HW,2013-07-05 16:55:00,
2013-07-05 10:00:00,63.5,54.7,30.06,North,0,0.0,0.0,73,0.00,,,0.00,WUHU216HW,2013-07-05 17:00:00,
2013-07-05 10:05:00,64.1,55.6,30.06,North,0,0.0,0.0,74,0.00,,,0.00,WUHU216HW,2013-07-05 17:05:00,
2013-07-05 10:10:00,64.1,54.9,30.06,North,0,0.0,0.0,72,0.00,,,0.00,WUHU216HW,2013-07-05 17:10:00,
2013-07-05 10:15:00,64.1,54.5,30.06,North,0,0.0,0.0,71,0.00,,,0.00,WUHU216HW,2013-07-05 17:15:00,
2013-07-05 10:20:00,64.1,54.9,30.06,North,0,0.0,0.0,72,0.00,,,0.00,WUHU216HW,2013-07-05 17:20:00,
2013-07-05 10:25:00,63.9,54.7,30.06,North,0,0.0,0.0,72,0.00,,,0.00,WUHU216HW,2013-07-05 17:25:00,
2013-07-05 10:30:00,63.9,54.7,30.06,North,0,0.0,0.0,72,0.00,,,0.00,WUHU216HW,2013-07-05 17:30:00,
2013-07-05 10:35:00,63.9,54.7,30.06,North,0,0.0,0.0,72,0.00,,,0.00,WUHU216HW,2013-07-05 17:35:00,
2013-07-05 10:40:00,63.9,54.7,30.06,North,0,0.0,0.0,72,0.00,,,0.00,WUHU216HW,2013-07-05 17:40:00,
2013-07-05 10:45:00,63.9,54.7,30.06,North,0,0.0,0.0,72,0.00,,,0.00,WUHU216HW,2013-07-05 17:45:00,
2013-07-05 10:50:00,64.1,54.9,30.06,North,0,0.0,0.0,72,0.00,,,0.00,WUHU216HW,2013-07-05 17:50:00,
2013-07-05 10:55:00,64.3,55.1,30.06,North,0,0.0,0.0,72,0.00,,,0.00,WUHU216HW,2013-07-05 17:55:00,
2013-07-05 11:00:00,64.6,55.5,30.06,North,0,0.0,0.0,72,0.00,,,0.00,WUHU216HW,2013-07-05 18:00:00,
2013-07-05 11:05:00,64.6,55.1,30.06,North,0,0.0,0.0,71,0.00,,,0.00,WUHU216HW,2013-07-05 18:05:00,
2013-07-05 11:10:00,64.8,55.3,30.06,North,0,0.0,0.0,71,0.00,,,0.00,WUHU216HW,2013-07-05 18:10:00,
2013-07-05 11:15:00,65.2,55.2,30.06,North,0,0.0,0.0,70,0.00,,,0.00,WUHU216HW,2013-07-05 18:15:00,
2013-07-05 11:20:00,65.5,55.5,30.06,North,0,0.0,0.0,70,0.00,,,0.00,WUHU216HW,2013-07-05 18:20:00,
2013-07-05 11:25:00,65.2,54.7,30.06,North,0,0.0,0.0,69,0.00,,,0.00,WUHU216HW,2013-07-05 18:25:00,
2013-07-05 11:30:00,65.0,54.6,30.06,North,0,0.0,0.0,69,0.00,,,0.00,WUHU216HW,2013-07-05 18:30:00,
2013-07-05 11:35:00,64.8,54.9,30.06,North,0,0.0,0.0,70,0.00,,,0.00,WUHU216HW,2013-07-05 18:35:00,
2013-07-05 11:40:00,65.7,55.7,30.05,North,0,0.0,0.0,70,0.00,,,0.00,WUHU216HW,2013-07-05 18:40:00,
2013-07-05 11:45:00,66.6,55.7,30.05,North,0,0.0,0.0,68,0.00,,,0.00,WUHU216HW,2013-07-05 18:45:00,
2013-07-05 11:50:00,67.1,56.3,30.05,North,0,0.0,0.0,68,0.00,,,0.00,WUHU216HW,2013-07-05 18:50:00,
2013-07-05 11:55:00,67.9,56.5,30.05,North,0,0.0,0.0,67,0.00,,,0.00,WUHU216HW,2013-07-05 18:55:00,
2013-07-05 12:00:00,67.1,54.6,30.05,North,0,0.0,0.0,64,0.00,,,0.00,WUHU216HW,2013-07-05 19:00:00,
2013-07-05 12:05:00,66.6,54.5,30.05,North,0,0.0,0.0,65,0.00,,,0.00,WUHU216HW,2013-07-05 19:05:00,
2013-07-05 12:10:00,66.8,54.6,30.05,North,0,0.0,0.0,65,0.00,,,0.00,WUHU216HW,2013-07-05 19:10:00,
2013-07-05 12:15:00,67.3,55.1,30.05,North,0,0.0,0.0,65,0.00,,,0.00,WUHU216HW,2013-07-05 19:15:00,
2013-07-05 12:20:00,67.7,55.4,30.05,North,0,0.0,0.0,65,0.00,,,0.00,WUHU216HW,2013-07-05 19:20:00,
2013-07-05 12:25:00,68.2,56.0,30.05,North,0,0.0,0.0,65,0.00,,,0.00,WUHU216HW,2013-07-05 19:25:00,
2013-07-05 12:30:00,68.0,54.9,30.05,North,0,0.0,0.0,63,0.00,,,0.00,WUHU216HW,2013-07-05 19:30:00,
2013-07-05 12:35:00,68.2,55.5,30.05,North,0,0.0,0.0,64,0.00,,,0.00,WUHU216HW,2013-07-05 19:35:00,
2013-07-05 12:40:00,67.9,55.6,30.05,North,0,0.0,0.0,65,0.00,,,0.00,WUHU216HW,2013-07-05 19:40:00,
2013-07-05 12:45:00,68.0,55.4,30.05,North,0,0.0,0.0,64,0.00,,,0.00,WUHU216HW,2013-07-05 19:45:00,
2013-07-05 12:50:00,68.4,55.7,30.05,North,0,0.0,0.0,64,0.00,,,0.00,WUHU216HW,2013-07-05 19:50:00,
2013-07-05 12:55:00,68.8,55.6,30.05,North,0,0.0,0.0,63,0.00,,,0.00,WUHU216HW,2013-07-05 19:55:00,
2013-07-05 13:00:00,68.9,55.8,30.05,North,0,0.0,0.0,63,0.00,,,0.00,WUHU216HW,2013-07-05 20:00:00,
2013-07-05 13:05:00,69.3,55.7,30.04,North,0,0.0,0.0,62,0.00,,,0.00,WUHU216HW,2013-07-05 20:05:00,
2013-07-05 13:10:00,69.5,55.9,30.05,North,0,0.0,0.0,62,0.00,,,0.00,WUHU216HW,2013-07-05 20:10:00,
2013-07-05 13:15:00,70.0,56.0,30.05,North,0,0.0,0.0,61,0.00,,,0.00,WUHU216HW,2013-07-05 20:15:00,
2013-07-05 13:20:00,70.6,56.5,30.05,North,0,0.0,0.0,61,0.00,,,0.00,WUHU216HW,2013-07-05 20:20:00,
2013-07-05 13:25:00,70.2,55.8,30.04,North,0,0.0,0.0,60,0.00,,,0.00,WUHU216HW,2013-07-05 20:25:00,
2013-07-05 13:30:00,70.9,56.4,30.04,North,0,0.0,0.0,60,0.00,,,0.00,WUHU216HW,2013-07-05 20:30:00,
2013-07-05 13:35:00,71.3,56.7,30.04,North,0,0.0,0.0,60,0.00,,,0.00,WUHU216HW,2013-07-05 20:35:00,
2013-07-05 13:40:00,71.8,56.3,30.04,North,0,0.0,0.0,58,0.00,,,0.00,WUHU216HW,2013-07-05 20:40:00,
2013-07-05 13:45:00,71.1,55.1,30.04,North,0,0.0,0.0,57,0.00,,,0.00,WUHU216HW,2013-07-05 20:45:00,
2013-07-05 13:55:00,70.6,54.1,30.04,North,0,0.0,0.0,56,0.00,,,0.00,WUHU216HW,2013-07-05 20:55:00,
2013-07-05 14:00:00,70.7,54.7,30.04,North,0,0.0,0.0,57,0.00,,,0.00,WUHU216HW,2013-07-05 21:00:00,
2013-07-05 14:05:00,70.9,55.9,30.04,North,0,0.0,0.0,59,0.00,,,0.00,WUHU216HW,2013-07-05 21:05:00,
2013-07-05 14:10:00,70.4,53.9,30.04,North,0,0.0,0.0,56,0.00,,,0.00,WUHU216HW,2013-07-05 21:10:00,
2013-07-05 14:15:00,70.6,55.1,30.04,North,0,0.0,0.0,58,0.00,,,0.00,WUHU216HW,2013-07-05 21:15:00,
2013-07-05 14:20:00,70.9,55.5,30.04,North,0,0.0,0.0,58,0.00,,,0.00,WUHU216HW,2013-07-05 21:20:00,
2013-07-05 14:26:00,71.3,55.3,30.04,North,0,0.0,0.0,57,0.00,,,0.00,WUHU216HW,2013-07-05 21:26:00,
2013-07-05 14:31:00,70.9,54.4,30.04,North,0,0.0,0.0,56,0.00,,,0.00,WUHU216HW,2013-07-05 21:31:00,
2013-07-05 14:36:00,71.1,54.1,30.04,North,0,0.0,0.0,55,0.00,,,0.00,WUHU216HW,2013-07-05 21:36:00,
2013-07-05 14:42:00,71.5,54.9,30.03,North,0,0.0,0.0,56,0.00,,,0.00,WUHU216HW,2013-07-05 21:42:00,
2013-07-05 14:47:00,72.2,55.5,30.03,North,0,0.0,0.0,56,0.00,,,0.00,WUHU216HW,2013-07-05 21:47:00,
2013-07-05 14:52:00,72.2,55.5,30.03,North,0,0.0,0.0,56,0.00,,,0.00,WUHU216HW,2013-07-05 21:52:00,
2013-07-05 14:57:00,72.0,55.4,30.03,North,0,0.0,0.0,56,0.00,,,0.00,WUHU216HW,2013-07-05 21:57:00,
2013-07-05 14:58:00,72.0,55.4,30.03,North,0,0.0,0.0,56,0.00,,,0.00,WUHU216HW,2013-07-05 21:58:00,
2013-07-05 15:03:00,72.0,54.4,30.03,North,0,0.0,0.0,54,0.00,,,0.00,WUHU216HW,2013-07-05 22:03:00,
2013-07-05 15:08:00,71.5,54.4,30.03,North,0,0.0,0.0,55,0.00,,,0.00,WUHU216HW,2013-07-05 22:08:00,
2013-07-05 15:13:00,71.6,54.0,30.03,North,0,0.0,0.0,54,0.00,,,0.00,WUHU216HW,2013-07-05 22:13:00,
2013-07-05 15:18:00,71.5,53.9,30.03,North,0,0.0,0.0,54,0.00,,,0.00,WUHU216HW,2013-07-05 22:18:00,
2013-07-05 15:23:00,71.5,54.4,30.03,North,0,0.0,0.0,55,0.00,,,0.00,WUHU216HW,2013-07-05 22:23:00,
2013-07-05 15:28:00,71.8,54.2,30.03,North,0,0.0,0.0,54,0.00,,,0.00,WUHU216HW,2013-07-05 22:28:00,
2013-07-05 15:33:00,72.0,54.9,30.03,North,0,0.0,0.0,55,0.00,,,0.00,WUHU216HW,2013-07-05 22:33:00,
2013-07-05 15:38:00,72.5,54.8,30.02,North,0,0.0,0.0,54,0.00,,,0.00,WUHU216HW,2013-07-05 22:38:00,
2013-07-05 15:43:00,72.5,54.4,30.02,North,0,0.0,0.0,53,0.00,,,0.00,WUHU216HW,2013-07-05 22:43:00,
2013-07-05 15:48:00,72.9,54.6,30.02,North,0,0.0,0.0,53,0.00,,,0.00,WUHU216HW,2013-07-05 22:48:00,
2013-07-05 15:53:00,73.3,54.5,30.02,North,0,0.0,0.0,52,0.00,,,0.00,WUHU216HW,2013-07-05 22:53:00,
2013-07-05 15:58:00,72.7,54.0,30.02,North,0,0.0,0.0,52,0.00,,,0.00,WUHU216HW,2013-07-05 22:58:00,
2013-07-05 16:03:00,72.7,54.0,30.02,North,0,0.0,0.0,52,0.00,,,0.00,WUHU216HW,2013-07-05 23:03:00,
2013-07-05 16:08:00,72.5,53.8,30.02,North,0,0.0,0.0,52,0.00,,,0.00,WUHU216HW,2013-07-05 23:08:00,
2013-07-05 16:13:00,72.5,54.4,30.02,North,0,0.0,0.0,53,0.00,,,0.00,WUHU216HW,2013-07-05 23:13:00,
2013-07-05 16:18:00,72.2,54.0,30.02,North,0,0.0,0.0,53,0.00,,,0.00,WUHU216HW,2013-07-05 23:18:00,
2013-07-05 16:23:00,72.4,55.2,30.01,North,0,0.0,0.0,55,0.00,,,0.00,WUHU216HW,2013-07-05 23:23:00,
2013-07-05 16:28:00,73.1,55.4,30.01,North,0,0.0,0.0,54,0.00,,,0.00,WUHU216HW,2013-07-05 23:28:00,
2013-07-05 16:33:00,73.6,54.8,30.01,North,0,0.0,0.0,52,0.00,,,0.00,WUHU216HW,2013-07-05 23:33:00,
2013-07-05 16:38:00,73.3,54.5,30.01,North,0,0.0,0.0,52,0.00,,,0.00,WUHU216HW,2013-07-05 23:38:00,
2013-07-05 16:43:00,72.7,54.6,30.01,North,0,0.0,0.0,53,0.00,,,0.00,WUHU216HW,2013-07-05 23:43:00,
2013-07-05 16:48:00,73.1,54.8,30.01,North,0,0.0,0.0,53,0.00,,,0.00,WUHU216HW,2013-07-05 23:48:00,
2013-07-05 16:53:00,72.9,54.6,30.01,North,0,0.0,0.0,53,0.00,,,0.00,WUHU216HW,2013-07-05 23:53:00,
2013-07-05 16:58:00,72.7,55.0,30.01,North,0,0.0,0.0,54,0.00,,,0.00,WUHU216HW,2013-07-05 23:58:00,
2013-07-05 17:03:00,72.5,54.4,30.01,North,0,0.0,0.0,53,0.00,,,0.00,WUHU216HW,2013-07-06 00:03:00,
2013-07-05 17:08:00,73.1,55.4,30.01,North,0,0.0,0.0,54,0.00,,,0.00,WUHU216HW,2013-07-06 00:08:00,
2013-07-05 17:13:00,74.5,55.7,30.01,North,0,0.0,0.0,52,0.00,,,0.00,WUHU216HW,2013-07-06 00:13:00,
2013-07-05 17:18:00,74.7,55.9,30.01,North,0,0.0,0.0,52,0.00,,,0.00,WUHU216HW,2013-07-06 00:18:00,
2013-07-05 17:23:00,76.5,58.1,30.00,North,0,0.0,0.0,53,0.00,,,0.00,WUHU216HW,2013-07-06 00:23:00,
2013-07-05 17:28:00,78.1,57.4,30.01,North,0,0.0,0.0,49,0.00,,,0.00,WUHU216HW,2013-07-06 00:28:00,
2013-07-05 17:33:00,77.0,56.4,30.01,North,0,0.0,0.0,49,0.00,,,0.00,WUHU216HW,2013-07-06 00:33:00,
2013-07-05 17:38:00,75.4,55.0,30.00,North,0,0.0,0.0,49,0.00,,,0.00,WUHU216HW,2013-07-06 00:38:00,
2013-07-05 17:43:00,75.8,56.4,30.00,North,0,0.0,0.0,51,0.00,,,0.00,WUHU216HW,2013-07-06 00:43:00,
2013-07-05 17:44:00,75.8,56.4,30.00,North,0,0.0,0.0,51,0.00,,,0.00,WUHU216HW,2013-07-06 00:44:00,
2013-07-05 17:49:00,78.5,57.8,30.00,North,0,0.0,0.0,49,0.00,,,0.00,WUHU216HW,2013-07-06 00:49:00,
2013-07-05 17:54:00,79.9,57.8,30.00,North,0,0.0,0.0,47,0.00,,,0.00,WUHU216HW,2013-07-06 00:54:00,
2013-07-05 17:59:00,80.1,56.8,30.00,North,0,0.0,0.0,45,0.00,,,0.00,WUHU216HW,2013-07-06 00:59:00,
2013-07-05 18:04:00,80.6,58.5,29.99,North,0,0.0,0.0,47,0.00,,,0.00,WUHU216HW,2013-07-06 01:04:00,
2013-07-05 18:09:00,80.6,57.2,30.00,North,0,0.0,0.0,45,0.00,,,0.00,WUHU216HW,2013-07-06 01:09:00,
2013-07-05 18:14:00,80.8,56.8,29.99,North,0,0.0,0.0,44,0.00,,,0.00,WUHU216HW,2013-07-06 01:14:00,
2013-07-05 18:19:00,81.4,56.1,30.00,North,0,0.0,0.0,42,0.00,,,0.00,WUHU216HW,2013-07-06 01:19:00,
2013-07-05 18:24:00,80.6,56.0,29.99,North,0,0.0,0.0,43,0.00,,,0.00,WUHU216HW,2013-07-06 01:24:00,
2013-07-05 18:29:00,81.0,56.3,29.99,North,0,0.0,0.0,43,0.00,,,0.00,WUHU216HW,2013-07-06 01:29:00,
2013-07-05 18:34:00,81.4,56.1,29.99,North,0,0.0,0.0,42,0.00,,,0.00,WUHU216HW,2013-07-06 01:34:00,
2013-07-05 18:39:00,80.6,56.0,30.00,North,0,0.0,0.0,43,0.00,,,0.00,WUHU216HW,2013-07-06 01:39:00,
2013-07-05 18:44:00,81.0,56.3,30.00,North,0,0.0,0.0,43,0.00,,,0.00,WUHU216HW,2013-07-06 01:44:00,
2013-07-05 18:49:00,81.2,56.5,30.00,North,0,0.0,0.0,43,0.00,,,0.00,WUHU216HW,2013-07-06 01:49:00,
2013-07-05 18:54:00,81.7,55.8,30.00,North,0,0.0,0.0,41,0.00,,,0.00,WUHU216HW,2013-07-06 01:54:00,
2013-07-05 18:59:00,81.0,55.7,30.00,North,0,0.0,0.0,42,0.00,,,0.00,WUHU216HW,2013-07-06 01:59:00,
2013-07-05 19:04:00,80.8,56.8,29.99,North,0,0.0,0.0,44,0.00,,,0.00,WUHU216HW,2013-07-06 02:04:00,
2013-07-05 19:09:00,81.9,57.8,29.99,North,0,0.0,0.0,44,0.00,,,0.00,WUHU216HW,2013-07-06 02:09:00,
2013-07-05 19:14:00,82.3,56.3,30.00,North,0,0.0,0.0,41,0.00,,,0.00,WUHU216HW,2013-07-06 02:14:00,
2013-07-05 19:19:00,81.0,55.1,29.99,North,0,0.0,0.0,41,0.00,,,0.00,WUHU216HW,2013-07-06 02:19:00,
2013-07-05 19:24:00,80.6,56.6,30.00,North,0,0.0,0.0,44,0.00,,,0.00,WUHU216HW,2013-07-06 02:24:00,
2013-07-05 19:29:00,80.5,55.9,30.00,North,0,0.0,0.0,43,0.00,,,0.00,WUHU216HW,2013-07-06 02:29:00,
2013-07-05 19:34:00,80.1,55.5,30.00,North,0,0.0,0.0,43,0.00,,,0.00,WUHU216HW,2013-07-06 02:34:00,
2013-07-05 19:39:00,80.6,56.6,30.00,North,0,0.0,0.0,44,0.00,,,0.00,WUHU216HW,2013-07-06 02:39:00,
2013-07-05 19:44:00,81.0,56.3,30.00,North,0,0.0,0.0,43,0.00,,,0.00,WUHU216HW,2013-07-06 02:44:00,
2013-07-05 19:49:00,80.5,55.9,30.00,North,0,0.0,0.0,43,0.00,,,0.00,WUHU216HW,2013-07-06 02:49:00,
2013-07-05 19:54:00,80.3,56.4,30.00,North,0,0.0,0.0,44,0.00,,,0.00,WUHU216HW,2013-07-06 02:54:00,
2013-07-05 19:59:00,79.4,55.5,30.00,North,0,0.0,0.0,44,0.00,,,0.00,WUHU216HW,2013-07-06 02:59:00,
2013-07-05 20:04:00,77.4,54.9,30.00,North,0,0.0,0.0,46,0.00,,,0.00,WUHU216HW,2013-07-06 03:04:00,
2013-07-05 20:09:00,75.6,54.5,30.00,North,0,0.0,0.0,48,0.00,,,0.00,WUHU216HW,2013-07-06 03:09:00,
2013-07-05 20:14:00,74.9,54.5,30.00,North,0,0.0,0.0,49,0.00,,,0.00,WUHU216HW,2013-07-06 03:14:00,
2013-07-05 20:19:00,74.0,54.2,30.00,North,0,0.0,0.0,50,0.00,,,0.00,WUHU216HW,2013-07-06 03:19:00,
2013-07-05 20:24:00,72.7,53.5,30.00,North,0,0.0,0.0,51,0.00,,,0.00,WUHU216HW,2013-07-06 03:24:00,
2013-07-05 20:29:00,72.0,53.8,30.00,North,0,0.0,0.0,53,0.00,,,0.00,WUHU216HW,2013-07-06 03:29:00,
2013-07-05 20:34:00,71.5,53.9,30.00,North,0,0.0,0.0,54,0.00,,,0.00,WUHU216HW,2013-07-06 03:34:00,
2013-07-05 20:39:00,71.3,53.7,30.00,North,0,0.0,0.0,54,0.00,,,0.00,WUHU216HW,2013-07-06 03:39:00,
2013-07-05 20:44:00,70.9,53.4,30.00,North,0,0.0,0.0,54,0.00,,,0.00,WUHU216HW,2013-07-06 03:44:00,
2013-07-05 20:49:00,70.6,53.1,30.00,North,0,0.0,0.0,54,0.00,,,0.00,WUHU216HW,2013-07-06 03:49:00,
2013-07-05 20:54:00,70.4,52.9,30.00,North,0,0.0,0.0,54,0.00,,,0.00,WUHU216HW,2013-07-06 03:54:00,
2013-07-05 20:59:00,70.2,53.3,30.00,North,0,0.0,0.0,55,0.00,,,0.00,WUHU216HW,2013-07-06 03:59:00,
2013-07-05 21:01:00,70.2,53.3,30.00,North,0,0.0,0.0,55,0.00,,,0.00,WUHU216HW,2013-07-06 04:01:00,
2013-07-05 21:06:00,70.0,53.6,30.00,North,0,0.0,0.0,56,0.00,,,0.00,WUHU216HW,2013-07-06 04:06:00,
2013-07-05 21:11:00,69.5,53.1,30.00,North,0,0.0,0.0,56,0.00,,,0.00,WUHU216HW,2013-07-06 04:11:00,
2013-07-05 21:16:00,68.9,53.0,30.00,North,0,0.0,0.0,57,0.00,,,0.00,WUHU216HW,2013-07-06 04:16:00,
2013-07-05 21:21:00,68.2,52.8,30.00,North,0,0.0,0.0,58,0.00,,,0.00,WUHU216HW,2013-07-06 04:21:00,
2013-07-05 21:26:00,67.7,53.3,30.00,North,0,0.0,0.0,60,0.00,,,0.00,WUHU216HW,2013-07-06 04:26:00,
2013-07-05 21:31:00,67.0,53.6,30.00,North,0,0.0,0.0,62,0.00,,,0.00,WUHU216HW,2013-07-06 04:31:00,
2013-07-05 21:36:00,66.4,53.5,30.01,North,0,0.0,0.0,63,0.00,,,0.00,WUHU216HW,2013-07-06 04:36:00,
2013-07-05 21:41:00,65.9,53.7,30.01,North,0,0.0,0.0,65,0.00,,,0.00,WUHU216HW,2013-07-06 04:41:00,
2013-07-05 21:46:00,65.3,53.6,30.01,North,0,0.0,0.0,66,0.00,,,0.00,WUHU216HW,2013-07-06 04:46:00,
2013-07-05 21:51:00,64.8,54.0,30.01,North,0,0.0,0.0,68,0.00,,,0.00,WUHU216HW,2013-07-06 04:51:00,
2013-07-05 21:56:00,64.6,54.3,30.01,North,0,0.0,0.0,69,0.00,,,0.00,WUHU216HW,2013-07-06 04:56:00,
2013-07-05 22:01:00,64.1,53.7,30.01,North,0,0.0,0.0,69,0.00,,,0.00,WUHU216HW,2013-07-06 05:01:00,
2013-07-05 22:06:00,63.7,53.8,30.01,North,0,0.0,0.0,70,0.00,,,0.00,WUHU216HW,2013-07-06 05:06:00,
2013-07-05 22:12:00,63.2,53.6,30.01,North,0,0.0,0.0,71,0.00,,,0.00,WUHU216HW,2013-07-06 05:12:00,
2013-07-05 22:17:00,62.8,53.3,30.01,North,0,0.0,0.0,71,0.00,,,0.00,WUHU216HW,2013-07-06 05:17:00,
2013-07-05 22:22:00,62.5,53.3,30.00,North,0,0.0,0.0,72,0.00,,,0.00,WUHU216HW,2013-07-06 05:22:00,
2013-07-05 22:27:00,62.1,53.4,30.01,North,0,0.0,0.0,73,0.00,,,0.00,WUHU216HW,2013-07-06 05:27:00,
2013-07-05 22:32:00,61.9,53.2,30.01,North,0,0.0,0.0,73,0.00,,,0.00,WUHU216HW,2013-07-06 05:32:00,
2013-07-05 22:37:00,61.6,53.2,30.00,North,0,0.0,0.0,74,0.00,,,0.00,WUHU216HW,2013-07-06 05:37:00,
2013-07-05 22:42:00,61.2,53.7,30.00,North,0,0.0,0.0,76,0.00,,,0.00,WUHU216HW,2013-07-06 05:42:00,
2013-07-05 22:47:00,61.0,53.1,30.00,North,0,0.0,0.0,75,0.00,,,0.00,WUHU216HW,2013-07-06 05:47:00,
2013-07-05 22:52:00,60.8,52.9,30.00,North,0,0.0,0.0,75,0.00,,,0.00,WUHU216HW,2013-07-06 05:52:00,
2013-07-05 22:57:00,60.5,52.9,30.00,North,0,0.0,0.0,76,0.00,,,0.00,WUHU216HW,2013-07-06 05:57:00,
2013-07-05 23:02:00,60.1,52.6,30.00,North,0,0.0,0.0,76,0.00,,,0.00,WUHU216HW,2013-07-06 06:02:00,
2013-07-05 23:07:00,60.1,53.3,30.00,North,0,0.0,0.0,78,0.00,,,0.00,WUHU216HW,2013-07-06 06:07:00,
2013-07-05 23:12:00,59.8,53.3,30.00,North,0,0.0,0.0,79,0.00,,,0.00,WUHU216HW,2013-07-06 06:12:00,
2013-07-05 23:17:00,59.6,53.1,30.00,North,0,0.0,0.0,79,0.00,,,0.00,WUHU216HW,2013-07-06 06:17:00,
2013-07-05 23:22:00,59.4,53.3,30.00,North,0,0.0,0.0,80,0.00,,,0.00,WUHU216HW,2013-07-06 06:22:00,
2013-07-05 23:27:00,59.4,52.9,30.00,North,0,0.0,0.0,79,0.00,,,0.00,WUHU216HW,2013-07-06 06:27:00,
2013-07-05 23:32:00,59.2,52.7,30.00,North,0,0.0,0.0,79,0.00,,,0.00,WUHU216HW,2013-07-06 06:32:00,
2013-07-05 23:37:00,59.0,52.6,30.00,North,0,0.0,0.0,79,0.00,,,0.00,WUHU216HW,2013-07-06 06:37:00,
2013-07-05 23:42:00,59.0,53.3,30.00,North,0,0.0,0.0,81,0.00,,,0.00,WUHU216HW,2013-07-06 06:42:00,
2013-07-05 23:47:00,58.9,52.7,30.00,North,0,0.0,0.0,80,0.00,,,0.00,WUHU216HW,2013-07-06 06:47:00,
2013-07-05 23:52:00,58.9,52.7,30.00,North,0,0.0,0.0,80,0.00,,,0.00,WUHU216HW,2013-07-06 06:52:00,
2013-07-05 23:57:00,58.7,52.6,30.00,North,0,0.0,0.0,80,0.00,,,0.00,WUHU216HW,2013-07-06 06:57:00,